Regional Weather Roundup
Issued by NWS

Home | Current Version | Previous Version | Graphics & Text | Print | Product List | Glossary On
Versions: 1 2 3 4 5 6 7 8 9 10 11 12 13 14 15 16 17 18 19 20 21 22 23 24 25 26 27
000
ASUS45 KCYS 202110
RWRWY

WYOMING REGIONAL WEATHER ROUNDUP
NATIONAL WEATHER SERVICE CHEYENNE WY
300 PM MDT THU JUL 20 2017

NOTE:  "FAIR" INDICATES FEW OR NO CLOUDS BELOW 12,000 FEET
WITH NO SIGNIFICANT WEATHER AND/OR OBSTRUCTIONS TO VISIBILITY.

WYZ001-202200-
YELLOWSTONE NATIONAL PARK

CITY           SKY/WX    TMP DP  RH WIND       PRES   REMARKS
LK YELLOWSTONE   N/A     60  53  77 CALM      30.35F
W YELLOWSTONE  NOT AVBL

$$
WYZ002>013-054>058-071-098>099-202200-
NORTHERN WYOMING

CITY           SKY/WX    TMP DP  RH WIND       PRES   REMARKS
JACKSON        CLOUDY    70  57  64 W17G29    30.22R THUNDER
CODY           LGT RAIN  80  50  34 NW15G28   30.05F
GREYBULL       FAIR      96  44  16 W3        29.88F HX  92
WORLAND        NOT AVBL
SHERIDAN       NOT AVBL
BUFFALO        NOT AVBL
GILLETTE       NOT AVBL
HULETT         FAIR      97  48  19 S17G25    29.99F HX  93
NEWCASTLE      FAIR      95  45  17 S15G23    30.03F HX  91

$$
WYZ014>020-022>026-101>103-202200-
CENTRAL WYOMING

CITY           SKY/WX    TMP DP  RH WIND       PRES   REMARKS
BIG PINEY      HVY RAIN  68  59  73 S6        30.23F
PINEDALE       FAIR      77  45  31 S15G24    30.25F
DUBOIS         FAIR      81  41  24 W10G21    30.21S
LANDER         FAIR      92  50  23 VRB3      30.05F
RIVERTON       FAIR      92  48  22 E7        30.05F
CASPER         FAIR      92  46  20 S9        30.07F
DOUGLAS        FAIR      94  48  20 E9        30.06F HX  90

$$
WYZ021-027>030-104>119-202200-
SOUTHERN WYOMING

CITY           SKY/WX    TMP DP  RH WIND       PRES   REMARKS
EVANSTON       FAIR      84  49  29 SW17G24   30.26F
KEMMERER         N/A     84  39  20 SW14G22   30.26F
FORT BRIDGER   FAIR      81  50  34 S14       30.29F
ROCK SPRINGS   FAIR      88  41  19 W8        30.22F
RAWLINS        FAIR      88  44  21 SW14G22   30.23F
SARATOGA       MOCLDY    82  45  26 W10G20    30.26F
LARAMIE        FAIR      82  45  27 VRB5      30.27F
CHEYENNE       FAIR      92  47  21 VRB7      30.19F
TORRINGTON     FAIR      90  63  40 SE9       30.06F HX  91
PINE BLUFFS    FAIR      90  52  27 S7        30.14F

$$




USA.gov is the U.S. government's official web portal to all federal, state and local government web resources and services.